Shaw AFB, SC

8:39 AM EDT on April 23, 2018 (GMT -0400)
Shaw Air Force Base

Weather History for KSSC - August, 2013

Change the Weather History Date:

Wednesday, August 21, 2013

  Actual Average Record
Temperature  
Mean Temperature 80 °F -  
Max Temperature 90 °F 87 °F 101 °F (2007)
Min Temperature 71 °F 68 °F 59 °F (1998)
Cooling Degree Days 16    
Growing Degree Days 30 (Base 50)    
Moisture  
Dew Point 71 °F    
Average Humidity 88    
Maximum Humidity 100    
Minimum Humidity 57    
Precipitation  
Precipitation 0.09 in - - ()
Sea Level Pressure  
Sea Level Pressure 30.16 in    
Wind  
Wind Speed 1 mph (NE)    
Max Wind Speed 9 mph    
Max Gust Speed -    
Visibility 6 miles    
Events Rain , Thunderstorm    
Averages and records for this station are not official NWS values.
T = Trace of Precipitation, MM = Missing Value Source: NWS Daily Summary

Daily Weather History Graph

Daily Weather History Graph

Search for Another Location

Airport or City:

Astronomy

Aug. 21, 2013 Rise Set
Actual Time 6:47 AM EDT 8:01 PM EDT
Civil Twilight 6:21 AM EDT 8:27 PM EDT
Nautical Twilight 5:50 AM EDT 8:58 PM EDT
Astronomical Twilight 5:18 AM EDT 9:30 PM EDT
Moon 8:15 PM EDT (8/21) 7:21 AM EDT (8/21)
Length of Visible Light 14h 05m
Length of Day
13h 13m
Full, 100% of the Moon is Illuminated
Aug 21
Full
Aug 28
Last Quarter
Sep 5
New
Sep 12
First Quarter
Sep 19
Full

Hourly Weather History & Observations

Time (EDT) Temp. Heat Index Dew Point Humidity Pressure Visibility Wind Dir Wind Speed Gust Speed Precip Events Conditions
12:03 AM 75.2 °F - 73.4 °F 94% 30.17 in 4.0 mi Calm Calm - N/A   Mostly Cloudy
12:08 AM 75.2 °F - 73.4 °F 94% 30.17 in 5.0 mi Calm Calm - N/A   Mostly Cloudy
12:13 AM 75.2 °F - 73.4 °F 94% 30.17 in 8.0 mi Calm Calm - N/A   Mostly Cloudy
12:28 AM 75.2 °F - 73.4 °F 94% 30.17 in 10.0 mi Calm Calm - N/A   Scattered Clouds
12:33 AM 75.2 °F - 73.4 °F 94% 30.17 in 4.0 mi Calm Calm - N/A   Scattered Clouds
12:38 AM 73.4 °F - 73.4 °F 100% 30.17 in 2.5 mi Calm Calm - N/A   Partly Cloudy
12:43 AM 73.4 °F - 73.4 °F 100% 30.17 in 1.5 mi Calm Calm - N/A   Partly Cloudy
12:48 AM 73.4 °F - 73.4 °F 100% 30.17 in 0.8 mi Calm Calm - N/A   Mist
12:53 AM 73.4 °F - 73.4 °F 100% 30.16 in 1.0 mi Calm Calm - N/A   Mist
12:58 AM 73.4 °F - 73.4 °F 100% 30.17 in 1.5 mi Calm Calm - N/A   Scattered Clouds
1:03 AM 73.4 °F - 73.4 °F 100% 30.17 in 1.5 mi Calm Calm - N/A   Scattered Clouds
1:08 AM 73.4 °F - 73.4 °F 100% 30.17 in 1.5 mi NNW 1.2 mph - N/A   Mostly Cloudy
1:13 AM 73.4 °F - 73.4 °F 100% 30.17 in 2.5 mi Calm Calm - N/A   Mostly Cloudy
1:18 AM 73.4 °F - 73.4 °F 100% 30.16 in 3.0 mi Calm Calm - N/A   Scattered Clouds
1:23 AM 73.4 °F - 73.4 °F 100% 30.16 in 2.5 mi Calm Calm - N/A   Scattered Clouds
1:28 AM 73.4 °F - 73.4 °F 100% 30.16 in 3.0 mi Calm Calm - N/A   Mostly Cloudy
1:33 AM 73.4 °F - 73.4 °F 100% 30.16 in 7.0 mi Calm Calm - N/A   Mostly Cloudy
1:43 AM 73.4 °F - 73.4 °F 100% 30.16 in 3.0 mi Calm Calm - N/A   Scattered Clouds
1:48 AM 73.4 °F - 73.4 °F 100% 30.16 in 1.2 mi Calm Calm - N/A   Scattered Clouds
1:50 AM 73.4 °F - 73.4 °F 100% 30.16 in 1.0 mi Calm Calm - N/A   Light Drizzle
1:58 AM 73.8 °F - 72.7 °F 96% 30.15 in 1.0 mi Calm Calm - 0.00 in   Light Drizzle
2:01 AM 73.4 °F - 73.4 °F 100% 30.15 in 1.0 mi Calm Calm - N/A   Partly Cloudy
2:05 AM 73.4 °F - 71.6 °F 94% 30.16 in 1.0 mi Calm Calm - N/A   Mist
2:15 AM 73.4 °F - 71.6 °F 94% 30.16 in 1.0 mi Calm Calm - N/A   Mist
2:20 AM 73.4 °F - 71.6 °F 94% 30.15 in 1.8 mi Calm Calm - N/A   Mostly Cloudy
2:24 AM 73.4 °F - 71.6 °F 94% 30.15 in 2.0 mi Calm Calm - N/A   Light Drizzle
2:26 AM 73.4 °F - 71.6 °F 94% 30.15 in 2.0 mi Calm Calm - N/A   Mostly Cloudy
2:31 AM 73.4 °F - 71.6 °F 94% 30.15 in 2.5 mi Calm Calm - N/A   Overcast
2:36 AM 73.4 °F - 71.6 °F 94% 30.15 in 1.2 mi ENE 1.2 mph - N/A   Overcast
2:46 AM 73.4 °F - 71.6 °F 94% 30.15 in 2.0 mi NE 2.3 mph - N/A   Overcast
2:47 AM 73.4 °F - 71.6 °F 94% 30.15 in 2.0 mi NE 2.3 mph - N/A   Light Drizzle
2:52 AM 73.4 °F - 71.6 °F 94% 30.15 in 1.0 mi ENE 2.3 mph - N/A   Light Drizzle
2:56 AM 73.4 °F - 71.6 °F 94% 30.15 in 1.2 mi Calm Calm - N/A   Overcast
2:58 AM 73.4 °F - 71.6 °F 94% 30.15 in 1.5 mi NE 1.2 mph - 0.00 in   Overcast
3:03 AM 73.4 °F - 71.6 °F 94% 30.16 in 2.5 mi NNE 2.3 mph - N/A   Overcast
3:08 AM 73.4 °F - 71.6 °F 94% 30.15 in 1.8 mi NNE 1.2 mph - N/A   Overcast
3:09 AM 73.4 °F - 71.6 °F 94% 30.15 in 1.8 mi NNE 2.3 mph - N/A   Light Drizzle
3:14 AM 73.4 °F - 69.8 °F 88% 30.15 in 4.0 mi NE 2.3 mph - N/A   Light Drizzle
3:17 AM 73.4 °F - 69.8 °F 88% 30.15 in 7.0 mi NE 3.5 mph - N/A   Overcast
3:22 AM 73.4 °F - 69.8 °F 88% 30.15 in 10.0 mi NNE 2.3 mph - N/A   Overcast
3:52 AM 71.6 °F - 69.8 °F 94% 30.15 in 10.0 mi NE 3.5 mph - N/A   Overcast
3:58 AM 72.0 °F - 69.3 °F 91% 30.15 in 10.0 mi NE 3.5 mph - 0.00 in   Mostly Cloudy
4:03 AM 71.6 °F - 68.0 °F 88% 30.15 in 10.0 mi NNE 3.5 mph - N/A   Scattered Clouds
4:08 AM 71.6 °F - 68.0 °F 88% 30.15 in 6.0 mi NE 4.6 mph - N/A   Scattered Clouds
4:13 AM 71.6 °F - 68.0 °F 88% 30.15 in 5.0 mi NE 4.6 mph - N/A   Mostly Cloudy
4:18 AM 71.6 °F - 68.0 °F 88% 30.15 in 7.0 mi NNE 4.6 mph - N/A   Scattered Clouds
4:23 AM 71.6 °F - 68.0 °F 88% 30.15 in 6.0 mi NE 4.6 mph - N/A   Mostly Cloudy
4:28 AM 71.6 °F - 68.0 °F 88% 30.14 in 3.0 mi NNE 4.6 mph - N/A   Mostly Cloudy
4:33 AM 71.6 °F - 68.0 °F 88% 30.15 in 1.8 mi NNE 4.6 mph - N/A   Mostly Cloudy
4:38 AM 71.6 °F - 68.0 °F 88% 30.15 in 1.2 mi NE 3.5 mph - N/A   Mostly Cloudy
4:53 AM 71.6 °F - 68.0 °F 88% 30.14 in 1.5 mi NE 4.6 mph - N/A   Overcast
4:58 AM 72.1 °F - 68.5 °F 88% 30.14 in 1.8 mi ENE 2.3 mph - N/A   Overcast
5:03 AM 71.6 °F - 68.0 °F 88% 30.15 in 1.5 mi ENE 3.5 mph - N/A   Overcast
5:13 AM 73.4 °F - 68.0 °F 83% 30.15 in 2.5 mi East 2.3 mph - N/A   Haze
5:18 AM 73.4 °F - 68.0 °F 83% 30.15 in 4.0 mi North 2.3 mph - N/A   Haze
5:23 AM 73.4 °F - 68.0 °F 83% 30.15 in 4.0 mi North 2.3 mph - N/A   Haze
5:33 AM 73.4 °F - 68.0 °F 83% 30.16 in 4.0 mi Calm Calm - N/A   Haze
5:38 AM 73.4 °F - 68.0 °F 83% 30.16 in 5.0 mi Calm Calm - N/A   Haze
5:48 AM 73.4 °F - 68.0 °F 83% 30.16 in 5.0 mi NE 2.3 mph - N/A   Haze
5:53 AM 73.4 °F - 68.0 °F 83% 30.16 in 5.0 mi NE 2.3 mph - N/A   Haze
5:58 AM 72.9 °F - 68.9 °F 87% 30.16 in 7.0 mi NE 2.3 mph - 0.01 in   Mostly Cloudy
6:03 AM 73.4 °F - 68.0 °F 83% 30.16 in 7.0 mi NNE 2.3 mph - N/A   Overcast
6:08 AM 73.4 °F - 68.0 °F 83% 30.16 in 6.0 mi North 2.3 mph - N/A   Haze
6:13 AM 73.4 °F - 68.0 °F 83% 30.16 in 8.0 mi NE 2.3 mph - N/A   Overcast
6:18 AM 73.4 °F - 68.0 °F 83% 30.16 in 10.0 mi NNE 2.3 mph - N/A   Mostly Cloudy
6:28 AM 73.4 °F - 68.0 °F 83% 30.17 in 10.0 mi North 2.3 mph - N/A   Mostly Cloudy
6:33 AM 73.4 °F - 68.0 °F 83% 30.17 in 10.0 mi NE 2.3 mph - N/A   Scattered Clouds
6:38 AM 71.6 °F - 68.0 °F 88% 30.17 in 10.0 mi NE 2.3 mph - N/A   Mostly Cloudy
6:58 AM 72.5 °F - 68.5 °F 87% 30.18 in 5.0 mi NE 3.5 mph - N/A   Mostly Cloudy
7:28 AM 73.4 °F - 69.8 °F 88% 30.17 in 4.0 mi NE 2.3 mph - N/A   Mostly Cloudy
7:36 AM 73.4 °F - 69.8 °F 88% 30.17 in 0.8 mi ENE 2.3 mph - N/A   Mostly Cloudy
7:58 AM 73.6 °F - 69.6 °F 87% 30.19 in 0.8 mi NE 2.3 mph - N/A   Mostly Cloudy
8:23 AM 75.2 °F - 71.6 °F 89% 30.20 in 2.0 mi Calm Calm - N/A   Mostly Cloudy
8:33 AM 75.2 °F - 71.6 °F 89% 30.20 in 3.0 mi Variable 1.2 mph - N/A   Mostly Cloudy
8:45 AM 75.2 °F - 71.6 °F 89% 30.20 in 7.0 mi Calm Calm - N/A   Mostly Cloudy
8:58 AM 77.0 °F - 73.4 °F 89% 30.20 in 7.0 mi Calm Calm - N/A   Mostly Cloudy
9:23 AM 78.8 °F - 75.2 °F 89% 30.21 in 7.0 mi Variable 2.3 mph - N/A   Mostly Cloudy
9:58 AM 80.1 °F 84.9 °F 74.8 °F 84% 30.22 in 9.0 mi Variable 1.2 mph - N/A   Mostly Cloudy
10:13 AM 82.4 °F 89.5 °F 75.2 °F 79% 30.22 in 10.0 mi SSW 3.5 mph - N/A   Overcast
10:18 AM 82.4 °F 89.5 °F 75.2 °F 79% 30.22 in 10.0 mi West 3.5 mph - N/A   Mostly Cloudy
10:28 AM 80.6 °F 86.2 °F 75.2 °F 84% 30.22 in 7.0 mi WSW 4.6 mph - N/A Rain Light Rain
10:58 AM 78.8 °F - 75.4 °F 89% 30.23 in 9.0 mi West 3.5 mph - 0.07 in   Mostly Cloudy
11:58 AM 81.9 °F 89.5 °F 76.6 °F 84% 30.21 in 10.0 mi SSE 3.5 mph - N/A   Scattered Clouds
12:58 PM 84.7 °F 92.8 °F 75.0 °F 72% 30.19 in 10.0 mi SW 4.6 mph - N/A   Scattered Clouds
1:58 PM 88.2 °F 95.5 °F 72.9 °F 60% 30.17 in 10.0 mi SSW 5.8 mph - N/A   Scattered Clouds
2:54 PM 87.8 °F 95.6 °F 73.4 °F 62% 30.15 in 10.0 mi South 5.8 mph - N/A   Light Drizzle
2:58 PM 88.7 °F 96.7 °F 73.4 °F 60% 30.15 in 10.0 mi South 4.6 mph - 0.00 in   Light Drizzle
3:03 PM 87.8 °F 95.6 °F 73.4 °F 62% 30.15 in 10.0 mi SSW 6.9 mph - N/A   Partly Cloudy
3:58 PM 88.7 °F 96.7 °F 73.2 °F 60% 30.13 in 10.0 mi SW 8.1 mph - 0.00 in   Clear
4:58 PM 90.5 °F 99.2 °F 73.2 °F 57% 30.12 in 10.0 mi SSW 9.2 mph - N/A   Scattered Clouds
5:58 PM 88.9 °F 96.1 °F 72.5 °F 58% 30.11 in 10.0 mi SSW 6.9 mph - N/A   Clear
6:58 PM 85.5 °F 93.4 °F 74.3 °F 69% 30.11 in 10.0 mi NNW 9.2 mph - N/A   Clear
7:33 PM 78.8 °F - 71.6 °F 78% 30.13 in 10.0 mi Variable 3.5 mph - N/A Rain Light Rain
7:50 PM 77.0 °F - 71.6 °F 83% 30.12 in 10.0 mi Calm Calm - N/A   Scattered Clouds
7:58 PM 77.4 °F - 72.0 °F 83% 30.12 in 10.0 mi SE 3.5 mph - 0.01 in Thunderstorm Partly Cloudy
8:20 PM 75.2 °F - 71.6 °F 89% 30.11 in 10.0 mi NNE 2.3 mph - N/A Rain Light Rain
8:35 PM 77.0 °F - 71.6 °F 83% 30.12 in 10.0 mi NE 1.2 mph - N/A   Mostly Cloudy
8:58 PM 75.2 °F - 72.3 °F 91% 30.13 in 10.0 mi ESE 3.5 mph - 0.00 in   Partly Cloudy
9:37 PM 75.2 °F - 71.6 °F 89% 30.16 in 10.0 mi Calm Calm - N/A   Light Drizzle
9:58 PM 76.1 °F - 72.1 °F 87% 30.15 in 10.0 mi NE 3.5 mph - 0.00 in   Mostly Cloudy
10:45 PM 75.2 °F - 71.6 °F 89% 30.17 in 10.0 mi NW 2.3 mph - N/A   Light Drizzle
10:58 PM 75.0 °F - 71.8 °F 90% 30.17 in 10.0 mi West 6.9 mph - 0.00 in Rain Light Rain
11:08 PM 75.2 °F - 71.6 °F 89% 30.17 in 10.0 mi WNW 6.9 mph - N/A   Scattered Clouds
11:58 PM 74.7 °F - 71.6 °F 90% 30.16 in 10.0 mi North 2.3 mph - 0.00 in   Scattered Clouds